Location: Borger
(52.9222°N, 6.7926°E)
Time: 20:43:24
(UTC+00:00)

DNEPR-1 R/B - Pass Details

Date: 15 May 2026
Orbit: 580 x 1333 km, 64.6° (Epoch: 7 June)

Event Time Altitude Azimuth Distance (km) Brightness Sun altitude
Rises 20:21:03 0° 315° (NW) 3,148 9.9 -7.4°
Reaches altitude 10° 20:23:13 10° 315° (NW) 2,312 8.3 -7.6°
Maximum altitude 20:28:33 84° 228° (SW) 891 4.4 -8.2°
Enters shadow 20:34:58 11° 141° (SE) 2,765 6.2 -8.8°
